Regional Weather Roundup
Issued by NWS Sterling, VA

Home | Current Version | Previous Version | Text Only | Print | Product List | Glossary Off
Versions: 1 2 3 4 5 6 7 8 9 10 11 12 13 14 15 16 17 18 19 20 21 22 23 24 25 26 27 28 29 30 31 32 33 34 35 36 37 38 39 40 41 42 43 44 45 46 47 48 49 50

334
ASUS41 KLWX 171711
RWRLWX

REGIONAL WEATHER ROUNDUP
NATIONAL WEATHER SERVICE BALTIMORE MD/WASHINGTON DC
1200 PM EST TUE JAN 17 2017

Note: "FAIR" indicates few or no clouds below 12,000 feet
with no significant weather and/or obstructions to visibility.
 TC=TEMPERATURE CELSIUS

 * =Non NWS site. Station does not report precipitation (e.g. rain,
    snow, etc.), thunder, or fog.

DCZ001-MDZ009-015-VAZ040>042-051-053>054-171800-
WASHINGTON METRO

CITY           SKY/WX    TMP DP  RH WIND       PRES   REMARKS
WASHINGTON NAT CLOUDY    47  45  93 S9        30.11F
DULLES         CLOUDY    44  41  89 S7        30.10F
ANDREWS AFB    CLOUDY    45  44  94 S10       30.08F
FT BELVOIR     CLOUDY    46  43  87 S6        30.10F
QUANTICO       CLOUDY    45  44  97 SW6       30.13F
LEESBURG*      CLOUDY    45  45 100 S5        30.09F FOG
MANASSAS*      CLOUDY   N/A N/A N/A MISG        N/A
GAITHERSBURG*  CLOUDY    43  39  87 SW3       30.14F

$$

MDZ006>007-011-014-171800-
BALTIMORE METRO

CITY           SKY/WX    TMP DP  RH WIND       PRES   REMARKS
BWI AIRPORT    LGT RAIN  43  43 100 SE6       30.09F FOG
MD SCIENCE CTR   N/A     43  39  86 MISG      30.12F
MARTIN STATE   LGT RAIN  43  43 100 E5        30.14F FOG
ANNAPOLIS      CLOUDY    45  42  89 SE7       30.10F FOG
FORT MEADE*    CLOUDY    43  41  93 S3        30.13F

$$

MDZ012-015-019>023-171800-
MARYLAND EASTERN SHORE

CITY           SKY/WX    TMP DP  RH WIND       PRES   REMARKS
OCEAN CITY     LGT RAIN  44  43  96 SW6       30.18F
SALISBURY      LGT RAIN  45  44  97 SE3       30.15F FOG
BAY BRIDGE AP* CLOUDY    43  43 100 SE9       30.11F FOG
CAMBRIDGE*     CLOUDY    43  43 100 S9        30.12F
EASTON*        LGT RAIN  45  43  93 S10       30.15F FOG

$$

MDZ017>025-171800-
SOUTHERN MARYLAND

CITY           SKY/WX    TMP DP  RH WIND       PRES   REMARKS
PATUXENT RIVER LGT RAIN  43  42  97 SE12      30.12F FOG
ST INIGOES     LGT RAIN  47  45  93 SE5       30.12F
LEONARDTOWN*   CLOUDY    46  43  87 S5        30.12F

$$

MDZ003>005-171800-
NORTH CENTRAL MARYLAND

CITY           SKY/WX    TMP DP  RH WIND       PRES   REMARKS
FREDERICK*     LGT RAIN  37  37 100 CALM      30.12F VSB 1
HAGERSTOWN APT FOG       37  35  92 CALM      30.06F VSB 1
WESTMINSTER*   LGT RAIN  39  39 100 S8        30.06F

$$

MDZ501>502-171800-
WESTERN MARYLAND

CITY           SKY/WX    TMP DP  RH WIND       PRES   REMARKS
OAKLAND*         N/A     50  50 100 SW13G24   29.97F FOG
CUMBERLAND*    CLOUDY    39  37  93 CALM      30.07F

$$

VAZ025>031-171800-
SHENANDOAH VALLEY

CITY           SKY/WX    TMP DP  RH WIND       PRES   REMARKS
WINCHESTER*    RAIN      43  41  93 CALM      30.05F
FRONT ROYAL*   CLOUDY    46  46 100 CALM      30.04F
LURAY*         LGT RAIN  52  52 100 CALM      30.04F
NEW MARKET*    CLOUDY    50  47  92 W3        30.05F
STAUNTON*      CLOUDY    52  50  94 CALM      30.08F
WAYNESBORO*    CLOUDY    55  52  91 E3        30.07F

$$

WVZ021-048>050-054>055-171800-
EASTERN WEST VIRGINIA PANHANDLE

CITY           SKY/WX    TMP DP  RH WIND       PRES   REMARKS
MARTINSBURG    FOG       38  37  97 CALM      30.06F VSB 1/2
PETERSBURG*    CLOUDY    44  41  91 CALM      30.01F FOG

$$

VAZ036>039-050-171800-
CENTRAL FOOTHILLS

CITY           SKY/WX    TMP DP  RH WIND       PRES   REMARKS
CHARLOTTESVILL LGT RAIN  46  44  93 S6        30.09F FOG
CULPEPER*      DRIZZLE   46  44  93 S5        30.11F
ORANGE*        DRIZZLE   46  46 100 CALM      30.13F
GORDONSVILLE*  CLOUDY    46  45  97 SW3       30.10F FOG
WARRENTON*     CLOUDY    46  42  86 S6        30.08F

$$

VAZ055>057-171800-
NORTH AND CENTRAL PIEDMONT

CITY           SKY/WX    TMP DP  RH WIND       PRES   REMARKS
FREDERICKSBRG* CLOUDY    48  48 100 SW3       30.11F
STAFFORD*      CLOUDY    46  46 100 CALM      30.15F

$$

NCZ024-NYZ072-PAZ021-071-VAZ022-071-171800-
OTHER REGIONAL OBSERVATIONS

CITY           SKY/WX    TMP DP  RH WIND       PRES   REMARKS
NEW YORK CITY  LGT RAIN  40  37  89 VRB3      30.19F FOG
PHILADELPHIA   CLOUDY    42  37  82 CALM      30.16F
PITTSBURGH     CLOUDY    58  55  90 S13G23    29.86F
ROANOKE        CLOUDY    47  46  97 CALM      30.14F FOG
RICHMOND       CLOUDY    54  49  83 S10       30.14F
RALEIGH        CLOUDY    56  51  84 SW13      30.22F

$$

ANZ530>537-171800-
MARINE OBSERVATIONS

STATION/POSITION TIME  TEMP    WIND        PRES
                       AIR SEA DIR/SP/G
                 (UTC) (F)     (DEG/KT/KT) (MB)
THOMAS PT LIGHT  1700   41 38  160/ 13/ 14   N/A
BALT KEY BRIDGE  1648   40     110/  7/  8 1019.8F
COVE POINT       1648   40     180/ 15/ 16 1020.4F
LEWISETTA        1648   47 42  180/  5/  5 1020.1F
SOLOMONS ISLAND  1648   43 40  130/ 10/ 10   N/A
PINEY POINT      1648          140/  7/  8   N/A

$$





USA.gov is the U.S. government's official web portal to all federal, state and local government web resources and services.